Location: Cheyres
(46.8153°N, 6.7877°E)
Time: 22:47:32
(UTC+00:00)

FENGYUN 1C DEB - Pass Details

Date: 06 December 2021
Orbit: 843 x 915 km, 99.0° (Epoch: 21 January)

Event Time Altitude Azimuth Distance (km) Brightness Sun altitude
Exits shadow 18:21:01 22° 7° (N) 1,784 ? -25.8°
Drops below altitude 10° 18:23:03 10° 357° (N) 2,491 ? -26.1°
Sets 18:25:29 0° 351° (N) 3,425 ? -26.6°
